When you browse on this site, cookies collect data to enhance your experience and personalize the content and advertising you see.
Visit our Privacy Policy to learn more. By continuing to use the site, you agree to this use of cookies and data.
  • In United Kingdom
  • List of Countries
  • For 7 days
  • Water Temperature
  • Satellite Maps
  • Weather Map
  • Weather Widgets
  • user-avatar
    Login

    Hourly Weather Lubumbashi

    Today, 19 May, Sunday

    Time Temperature Precipitation Wind Pressure Humidity
    00:00 +37°C° 0 mm 4 mps 716 mmHg 24%
    01:00 +37°C° 0 mm 4 mps 716 mmHg 26%
    02:00 +36°C° 0 mm 5 mps 716 mmHg 31%
    03:00 +36°C° 0 mm 5 mps 717 mmHg 35%
    04:00 +35°C° 0 mm 4 mps 717 mmHg 39%
    05:00 +34°C° 0 mm 4 mps 717 mmHg 44%
    06:00 +35°C° 0 mm 5 mps 718 mmHg 42%
    07:00 +36°C° 0 mm 6 mps 718 mmHg 39%
    08:00 +38°C° 0 mm 7 mps 719 mmHg 36%
    09:00 +40°C° 0 mm 6 mps 719 mmHg 33%
    10:00 +41°C° 0 mm 6 mps 719 mmHg 29%
    11:00 +42°C° 0 mm 6 mps 719 mmHg 26%
    12:00 +43°C° 0 mm 5 mps 718 mmHg 24%
    13:00 +43°C° 0 mm 3 mps 718 mmHg 23%
    14:00 +42°C° 0 mm 2 mps 717 mmHg 21%
    15:00 +42°C° 0 mm 2 mps 716 mmHg 21%
    16:00 +42°C° 0 mm 2 mps 716 mmHg 21%
    17:00 +42°C° 0 mm 2 mps 716 mmHg 21%
    18:00 +40°C° 0 mm 2 mps 716 mmHg 24%
    19:00 +39°C° 0 mm 2 mps 716 mmHg 26%
    20:00 +37°C° 0 mm 2 mps 716 mmHg 28%
    21:00 +37°C° 0 mm 4 mps 716 mmHg 31%
    22:00 +36°C° 0 mm 5 mps 717 mmHg 33%
    23:00 +35°C° 0 mm 6 mps 717 mmHg 36%

    Tomorrow, 20 May, Monday

    Time Temperature Precipitation Wind Pressure Humidity
    00:00 +34°C° 0 mm 6 mps 717 mmHg 38%
    01:00 +34°C° 0 mm 5 mps 717 mmHg 41%
    02:00 +33°C° 0 mm 5 mps 717 mmHg 44%
    03:00 +32°C° 0 mm 5 mps 717 mmHg 45%
    04:00 +32°C° 0 mm 5 mps 717 mmHg 47%
    05:00 +32°C° 0 mm 5 mps 717 mmHg 48%
    06:00 +33°C° 0 mm 5 mps 718 mmHg 46%
    07:00 +34°C° 0 mm 5 mps 718 mmHg 45%
    08:00 +35°C° 0 mm 5 mps 719 mmHg 43%
    09:00 +37°C° 0 mm 4 mps 719 mmHg 39%
    10:00 +38°C° 0 mm 4 mps 720 mmHg 36%
    11:00 +40°C° 0 mm 3 mps 720 mmHg 32%
    12:00 +40°C° 0 mm 3 mps 719 mmHg 29%
    13:00 +41°C° 0 mm 2 mps 718 mmHg 26%
    14:00 +42°C° 0 mm 1 mps 718 mmHg 22%
    15:00 +42°C° 0 mm 2 mps 717 mmHg 22%
    16:00 +42°C° 0 mm 2 mps 717 mmHg 21%
    17:00 +43°C° 0 mm 3 mps 716 mmHg 21%
    18:00 +42°C° 0 mm 4 mps 716 mmHg 23%
    19:00 +41°C° 0 mm 4 mps 716 mmHg 26%
    20:00 +40°C° 0 mm 5 mps 717 mmHg 28%
    21:00 +38°C° 0 mm 4 mps 717 mmHg 31%
    22:00 +37°C° 0 mm 4 mps 717 mmHg 33%
    23:00 +36°C° 0 mm 4 mps 717 mmHg 36%

    Day after tomorrow, 21 May, Tuesday

    Time Temperature Precipitation Wind Pressure Humidity
    00:00 +35°C° 0 mm 4 mps 717 mmHg 38%
    01:00 +34°C° 0 mm 5 mps 717 mmHg 40%
    02:00 +34°C° 0 mm 5 mps 717 mmHg 42%
    03:00 +33°C° 0.2 mm 5 mps 717 mmHg 45%
    04:00 +32°C° 0.2 mm 5 mps 718 mmHg 48%
    05:00 +32°C° 0.2 mm 5 mps 718 mmHg 51%
    06:00 +33°C° 0.3 mm 5 mps 719 mmHg 49%
    07:00 +33°C° 0.3 mm 5 mps 719 mmHg 47%
    08:00 +34°C° 0.3 mm 5 mps 720 mmHg 46%
    09:00 +36°C° 0 mm 5 mps 720 mmHg 41%
    10:00 +39°C° 0 mm 5 mps 720 mmHg 36%
    11:00 +40°C° 0 mm 4 mps 720 mmHg 32%
    12:00 +40°C° 0 mm 3 mps 719 mmHg 28%
    13:00 +41°C° 0 mm 2 mps 718 mmHg 23%
    14:00 +39°C° 0 mm 0 mps 718 mmHg 19%
    15:00 +39°C° 0 mm 0 mps 717 mmHg 19%
    16:00 +42°C° 0 mm 1 mps 717 mmHg 18%
    17:00 +42°C° 0 mm 1 mps 716 mmHg 18%
    18:00 +41°C° 0 mm 1 mps 717 mmHg 19%
    19:00 +40°C° 0 mm 1 mps 717 mmHg 20%
    20:00 +36°C° 0 mm 0 mps 717 mmHg 21%
    21:00 +39°C° 0 mm 2 mps 717 mmHg 23%
    22:00 +38°C° 0 mm 4 mps 718 mmHg 26%
    23:00 +38°C° 0 mm 6 mps 718 mmHg 28%

    22 May, Wednesday

    Time Temperature Precipitation Wind Pressure Humidity
    00:00 +36°C° 0 mm 5 mps 717 mmHg 33%
    01:00 +35°C° 0 mm 5 mps 717 mmHg 37%
    02:00 +34°C° 0 mm 5 mps 717 mmHg 42%
    03:00 +33°C° 0 mm 3 mps 717 mmHg 44%
    04:00 +31°C° 0 mm 2 mps 717 mmHg 46%
    05:00 +28°C° 0 mm 0 mps 717 mmHg 49%
    06:00 +32°C° 0 mm 2 mps 718 mmHg 45%
    07:00 +35°C° 0 mm 3 mps 719 mmHg 41%
    08:00 +37°C° 0 mm 4 mps 720 mmHg 37%
    09:00 +38°C° 0 mm 4 mps 720 mmHg 33%
    10:00 +41°C° 0 mm 4 mps 720 mmHg 28%
    11:00 +42°C° 0 mm 4 mps 720 mmHg 24%
    12:00 +42°C° 0 mm 2 mps 719 mmHg 21%
    13:00 +42°C° 0 mm 1 mps 718 mmHg 19%
    14:00 +40°C° 0 mm 0 mps 717 mmHg 16%
    15:00 +40°C° 0 mm 0 mps 717 mmHg 16%
    16:00 +40°C° 0 mm 0 mps 716 mmHg 16%
    17:00 +42°C° 0 mm 1 mps 716 mmHg 15%
    18:00 +41°C° 0 mm 1 mps 716 mmHg 17%
    19:00 +39°C° 0 mm 1 mps 716 mmHg 19%
    20:00 +37°C° 0 mm 1 mps 716 mmHg 21%
    21:00 +37°C° 0 mm 2 mps 717 mmHg 22%
    22:00 +37°C° 0 mm 4 mps 717 mmHg 23%
    23:00 +37°C° 0 mm 5 mps 717 mmHg 24%

    23 May, Thursday

    Time Temperature Precipitation Wind Pressure Humidity
    00:00 +36°C° 0 mm 4 mps 717 mmHg 33%
    01:00 +34°C° 0 mm 4 mps 717 mmHg 42%
    02:00 +33°C° 0 mm 4 mps 716 mmHg 50%
    03:00 +33°C° 0 mm 3 mps 716 mmHg 52%
    04:00 +31°C° 0 mm 3 mps 717 mmHg 53%
    05:00 +31°C° 0 mm 3 mps 717 mmHg 54%
    06:00 +33°C° 0 mm 4 mps 718 mmHg 50%
    07:00 +34°C° 0 mm 5 mps 718 mmHg 46%
    08:00 +35°C° 0 mm 5 mps 719 mmHg 42%
    09:00 +37°C° 0 mm 5 mps 719 mmHg 38%
    10:00 +40°C° 0 mm 5 mps 719 mmHg 34%
    11:00 +41°C° 0 mm 6 mps 719 mmHg 30%
    12:00 +42°C° 0 mm 5 mps 718 mmHg 26%
    13:00 +43°C° 0 mm 4 mps 717 mmHg 22%
    14:00 +44°C° 0 mm 3 mps 717 mmHg 18%
    15:00 +44°C° 0 mm 3 mps 716 mmHg 18%
    16:00 +43°C° 0 mm 3 mps 716 mmHg 18%
    17:00 +42°C° 0 mm 2 mps 716 mmHg 18%
    18:00 +42°C° 0 mm 3 mps 716 mmHg 19%
    19:00 +40°C° 0 mm 3 mps 716 mmHg 20%
    20:00 +39°C° 0 mm 3 mps 717 mmHg 22%
    21:00 +39°C° 0 mm 3 mps 717 mmHg 22%
    22:00 +38°C° 0 mm 3 mps 717 mmHg 23%
    23:00 +37°C° 0 mm 3 mps 717 mmHg 24%

    24 May, Friday

    Time Temperature Precipitation Wind Pressure Humidity
    00:00 +37°C° 0 mm 4 mps 717 mmHg 26%
    01:00 +36°C° 0 mm 4 mps 716 mmHg 27%
    02:00 +35°C° 0 mm 5 mps 716 mmHg 29%
    03:00 +35°C° 0 mm 5 mps 716 mmHg 33%
    04:00 +34°C° 0 mm 6 mps 717 mmHg 38%
    05:00 +34°C° 0 mm 6 mps 717 mmHg 43%
    06:00 +35°C° 0 mm 6 mps 718 mmHg 41%
    07:00 +35°C° 0 mm 6 mps 719 mmHg 40%
    08:00 +36°C° 0 mm 6 mps 719 mmHg 39%
    09:00 +39°C° 0 mm 5 mps 719 mmHg 35%
    10:00 +40°C° 0 mm 5 mps 719 mmHg 32%
    11:00 +42°C° 0 mm 5 mps 719 mmHg 29%
    12:00 +43°C° 0 mm 4 mps 718 mmHg 26%
    13:00 +43°C° 0 mm 3 mps 717 mmHg 23%
    14:00 +43°C° 0 mm 2 mps 716 mmHg 20%
    15:00 +43°C° 0 mm 2 mps 716 mmHg 20%
    16:00 +43°C° 0 mm 2 mps 716 mmHg 20%
    17:00 +42°C° 0 mm 2 mps 715 mmHg 20%
    18:00 +41°C° 0 mm 2 mps 716 mmHg 22%
    19:00 +40°C° 0 mm 3 mps 716 mmHg 23%
    20:00 +39°C° 0 mm 3 mps 716 mmHg 25%
    21:00 +40°C° 0.2 mm 4 mps 717 mmHg 27%
    22:00 +39°C° 0.2 mm 6 mps 717 mmHg 30%
    23:00 +38°C° 0.2 mm 7 mps 717 mmHg 32%
    Show more